Overview Statistics Trail Chart Weather Telemetry Raw packets
 

This is the latest recevied weather packets stored in our database for station/object VK6WB. If no packets are shown the sender has not sent any weather packets the latest 10 day(s).

<< 28 29 30 31 32 33 34 >>
Time Temp. Humidity Pressure Rain* Wind** Luminosity Snow
1777153204 12.22° C 10% 1015.9 hPa 0 mm - 579 W/m² -
1777152605 12.22° C 10% 1015.7 hPa 0 mm - 580 W/m² -
1777152003 12.22° C 10% 1015.8 hPa 0 mm - 580 W/m² -
1777151404 12.78° C 10% 1015.6 hPa 0 mm - 580 W/m² -
1777150803 13.33° C 10% 1015.3 hPa 0 mm - 580 W/m² -
1777150204 13.33° C 10% 1015.3 hPa 0 mm - 528 W/m² -
1777149604 13.33° C 10% 1015.1 hPa 0 mm - 425 W/m² -
1777149004 13.33° C 10% 1014.9 hPa 0 mm - 373 W/m² -
1777148404 13.33° C 10% 1015 hPa 0 mm - 373 W/m² -
1777147803 13.33° C 10% 1014.9 hPa 0 mm - 373 W/m² -
1777147204 13.33° C 10% 1014.9 hPa 0 mm - 321 W/m² -
1777146604 13.33° C 10% 1014.9 hPa 0 mm - 269 W/m² -
1777146004 13.33° C 11% 1015.2 hPa 0 mm - 218 W/m² -
1777145404 13.33° C 11% 1015.1 hPa 0 mm - 166 W/m² -
1777144803 13.33° C 12% 1015.1 hPa 0 mm - 63 W/m² -
1777144204 13.33° C 12% 1015.1 hPa 0 mm - 63 W/m² -
1777143603 13.33° C 15% 1015.1 hPa 0 mm - 11 W/m² -
1777143005 13.33° C 19% 1015.3 hPa 0 mm - 10 W/m² -
1777142405 13.33° C 20% 1015.4 hPa 0 mm - 10 W/m² -
1777141805 13.33° C 21% 1015.4 hPa 0 mm - 10 W/m² -
1777141205 13.33° C 22% 1015.5 hPa 0 mm - 10 W/m² -
1777140606 13.33° C 24% 1015.7 hPa 0 mm - 10 W/m² -
1777140005 13.33° C 25% 1015.9 hPa 0 mm - 10 W/m² -
1777139405 13.33° C 26% 1016 hPa 0 mm - 10 W/m² -
1777138805 13.33° C 29% 1015.9 hPa 0 mm - 10 W/m² -

* Rain latest hour (hover to see other rain measurements)
** Current wind speed in m/s (hover to see current wind gust speed)